When you browse on this site, cookies collect data to enhance your experience and personalize the content and advertising you see.
Visit our Privacy Policy to learn more. By continuing to use the site, you agree to this use of cookies and data.
  • In Spain
  • List of Countries
  • For 7 days
  • Water Temperature
  • Weather Map
  • Weather Widgets
  • user-avatar
    Login

    Hourly Weather Brasília

    Today, 29 February, Saturday

    Time Temperature Precipitation Wind Pressure Humidity
    00:00 +22°C° 0.7 mm 1 mps 666 mmHg 93%
    01:00 +22°C° 0.3 mm 1 mps 666 mmHg 93%
    02:00 +22°C° 0.3 mm 1 mps 666 mmHg 93%
    03:00 +21°C° 0.3 mm 1 mps 666 mmHg 94%
    04:00 +21°C° 1.6 mm 1 mps 666 mmHg 94%
    05:00 +21°C° 1.6 mm 1 mps 666 mmHg 93%
    06:00 +20°C° 1.6 mm 2 mps 666 mmHg 93%
    07:00 +21°C° 1.2 mm 2 mps 666 mmHg 91%
    08:00 +23°C° 1.2 mm 2 mps 667 mmHg 89%
    09:00 +23°C° 1.2 mm 2 mps 668 mmHg 87%
    10:00 +23°C° 2.3 mm 1 mps 668 mmHg 90%
    11:00 +22°C° 2.3 mm 1 mps 667 mmHg 92%
    12:00 +22°C° 2.3 mm 1 mps 667 mmHg 95%
    13:00 +22°C° 2.1 mm 1 mps 666 mmHg 95%
    14:00 +22°C° 2.1 mm 1 mps 666 mmHg 95%
    15:00 +22°C° 2.1 mm 1 mps 665 mmHg 95%
    16:00 +22°C° 0.3 mm 1 mps 665 mmHg 94%
    17:00 +22°C° 0.3 mm 1 mps 665 mmHg 94%
    18:00 +22°C° 0.3 mm 1 mps 664 mmHg 93%
    19:00 +21°C° 0 mm 1 mps 665 mmHg 93%
    20:00 +21°C° 0 mm 1 mps 665 mmHg 93%
    21:00 +21°C° 0 mm 1 mps 665 mmHg 93%
    22:00 +21°C° 0 mm 1 mps 665 mmHg 92%
    23:00 +19°C° 0 mm 0 mps 666 mmHg 91%

    Tomorrow, 1 March, Sunday

    Time Temperature Precipitation Wind Pressure Humidity
    00:00 +19°C° 0 mm 0 mps 666 mmHg 90%
    01:00 +19°C° 0.1 mm 0 mps 665 mmHg 90%
    02:00 +19°C° 0.1 mm 0 mps 665 mmHg 89%
    03:00 +19°C° 0.1 mm 0 mps 664 mmHg 88%
    04:00 +19°C° 0 mm 0 mps 665 mmHg 89%
    05:00 +18°C° 0 mm 0 mps 665 mmHg 89%
    06:00 +18°C° 0 mm 0 mps 665 mmHg 90%
    07:00 +19°C° 0.1 mm 0 mps 665 mmHg 88%
    08:00 +20°C° 0.1 mm 0 mps 666 mmHg 86%
    09:00 +21°C° 0.1 mm 0 mps 667 mmHg 84%
    10:00 +24°C° 1 mm 1 mps 667 mmHg 83%
    11:00 +25°C° 1 mm 1 mps 667 mmHg 82%
    12:00 +25°C° 1 mm 1 mps 667 mmHg 81%
    13:00 +25°C° 1.9 mm 1 mps 666 mmHg 84%
    14:00 +24°C° 1.9 mm 1 mps 665 mmHg 86%
    15:00 +23°C° 1.9 mm 1 mps 665 mmHg 89%
    16:00 +23°C° 0.5 mm 1 mps 664 mmHg 90%
    17:00 +20°C° 0.5 mm 0 mps 664 mmHg 91%
    18:00 +20°C° 0.5 mm 0 mps 664 mmHg 92%
    19:00 +20°C° 0 mm 0 mps 664 mmHg 93%
    20:00 +19°C° 0 mm 0 mps 664 mmHg 93%
    21:00 +19°C° 0 mm 0 mps 664 mmHg 94%
    22:00 +19°C° 0.5 mm 0 mps 664 mmHg 94%
    23:00 +19°C° 0.5 mm 0 mps 664 mmHg 95%

    Day after tomorrow, 2 March, Monday

    Time Temperature Precipitation Wind Pressure Humidity
    00:00 +18°C° 0.5 mm 0 mps 664 mmHg 96%
    01:00 +18°C° 1 mm 0 mps 664 mmHg 96%
    02:00 +20°C° 1 mm 1 mps 664 mmHg 96%
    03:00 +20°C° 1 mm 1 mps 663 mmHg 96%
    04:00 +20°C° 0.9 mm 1 mps 663 mmHg 97%
    05:00 +20°C° 0.9 mm 1 mps 663 mmHg 97%
    06:00 +20°C° 0.9 mm 1 mps 664 mmHg 97%
    07:00 +20°C° 0.4 mm 1 mps 664 mmHg 95%
    08:00 +21°C° 0.4 mm 1 mps 665 mmHg 94%
    09:00 +21°C° 0.4 mm 1 mps 665 mmHg 93%
    10:00 +21°C° 0.4 mm 2 mps 665 mmHg 91%
    11:00 +21°C° 0.4 mm 3 mps 665 mmHg 88%
    12:00 +22°C° 0.4 mm 3 mps 665 mmHg 86%
    13:00 +22°C° 0.2 mm 3 mps 665 mmHg 84%
    14:00 +22°C° 0.2 mm 3 mps 664 mmHg 82%
    15:00 +22°C° 0.2 mm 3 mps 663 mmHg 80%
    16:00 +23°C° 0 mm 2 mps 663 mmHg 82%
    17:00 +23°C° 0 mm 2 mps 663 mmHg 84%
    18:00 +23°C° 0 mm 1 mps 663 mmHg 85%
    19:00 +22°C° 0 mm 1 mps 663 mmHg 88%
    20:00 +21°C° 0 mm 1 mps 663 mmHg 91%
    21:00 +20°C° 0 mm 1 mps 664 mmHg 93%
    22:00 +20°C° 0.2 mm 1 mps 664 mmHg 93%
    23:00 +20°C° 0.2 mm 1 mps 664 mmHg 93%

    3 March, Tuesday

    Time Temperature Precipitation Wind Pressure Humidity
    00:00 +18°C° 0.2 mm 0 mps 664 mmHg 93%
    01:00 +18°C° 0.7 mm 0 mps 663 mmHg 92%
    02:00 +18°C° 0.7 mm 0 mps 663 mmHg 92%
    03:00 +18°C° 0.7 mm 0 mps 663 mmHg 92%
    04:00 +21°C° 0.2 mm 1 mps 663 mmHg 92%
    05:00 +21°C° 0.2 mm 1 mps 663 mmHg 91%
    06:00 +21°C° 0.2 mm 1 mps 663 mmHg 91%
    07:00 +21°C° 0.6 mm 1 mps 664 mmHg 92%
    08:00 +21°C° 0.6 mm 1 mps 664 mmHg 93%
    09:00 +21°C° 0.6 mm 1 mps 665 mmHg 94%
    10:00 +21°C° 0.6 mm 2 mps 665 mmHg 91%
    11:00 +23°C° 0.6 mm 2 mps 665 mmHg 89%
    12:00 +24°C° 0.6 mm 3 mps 665 mmHg 86%
    13:00 +24°C° 1.3 mm 3 mps 665 mmHg 85%
    14:00 +25°C° 1.3 mm 3 mps 664 mmHg 84%
    15:00 +25°C° 1.3 mm 3 mps 664 mmHg 82%
    16:00 +25°C° 1.4 mm 3 mps 663 mmHg 85%
    17:00 +24°C° 1.4 mm 3 mps 663 mmHg 88%
    18:00 +23°C° 1.4 mm 2 mps 663 mmHg 91%
    19:00 +21°C° 1.2 mm 2 mps 663 mmHg 92%
    20:00 +21°C° 1.2 mm 2 mps 663 mmHg 93%
    21:00 +21°C° 1.2 mm 3 mps 664 mmHg 93%
    22:00 +20°C° 1.2 mm 2 mps 664 mmHg 94%
    23:00 +20°C° 1.2 mm 2 mps 664 mmHg 94%

    4 March, Wednesday

    Time Temperature Precipitation Wind Pressure Humidity
    00:00 +20°C° 1.2 mm 2 mps 664 mmHg 95%
    01:00 +20°C° 1 mm 2 mps 664 mmHg 95%
    02:00 +20°C° 1 mm 2 mps 663 mmHg 96%
    03:00 +19°C° 1 mm 2 mps 663 mmHg 96%
    04:00 +19°C° 0.2 mm 2 mps 663 mmHg 96%
    05:00 +19°C° 0.2 mm 2 mps 664 mmHg 96%
    06:00 +19°C° 0.2 mm 2 mps 664 mmHg 96%
    07:00 +20°C° 0 mm 3 mps 664 mmHg 94%
    08:00 +21°C° 0 mm 3 mps 665 mmHg 92%
    09:00 +21°C° 0 mm 3 mps 666 mmHg 90%
    10:00 +22°C° 0.3 mm 3 mps 666 mmHg 88%
    11:00 +23°C° 0.3 mm 4 mps 665 mmHg 86%
    12:00 +23°C° 0.3 mm 4 mps 665 mmHg 83%
    13:00 +25°C° 0.5 mm 4 mps 665 mmHg 82%
    14:00 +25°C° 0.5 mm 4 mps 665 mmHg 81%
    15:00 +26°C° 0.5 mm 4 mps 664 mmHg 79%
    16:00 +25°C° 0.9 mm 3 mps 664 mmHg 83%
    17:00 +24°C° 0.9 mm 3 mps 664 mmHg 86%
    18:00 +24°C° 0.9 mm 3 mps 663 mmHg 89%
    19:00 +23°C° 1.4 mm 2 mps 663 mmHg 90%
    20:00 +21°C° 1.4 mm 2 mps 664 mmHg 91%
    21:00 +21°C° 1.4 mm 2 mps 664 mmHg 91%
    22:00 +21°C° 0.6 mm 1 mps 664 mmHg 92%
    23:00 +21°C° 0.6 mm 1 mps 664 mmHg 93%

    5 March, Thursday

    Time Temperature Precipitation Wind Pressure Humidity
    00:00 +21°C° 0.6 mm 1 mps 664 mmHg 95%
    01:00 +20°C° 0.3 mm 1 mps 664 mmHg 95%
    02:00 +20°C° 0.3 mm 1 mps 664 mmHg 96%
    03:00 +20°C° 0.3 mm 1 mps 663 mmHg 96%
    04:00 +18°C° 0.3 mm 0 mps 664 mmHg 96%
    05:00 +18°C° 0.3 mm 0 mps 664 mmHg 95%
    06:00 +18°C° 0.3 mm 0 mps 664 mmHg 95%
    07:00 +19°C° 0 mm 0 mps 665 mmHg 91%
    08:00 +21°C° 0 mm 0 mps 665 mmHg 86%
    09:00 +23°C° 0 mm 0 mps 666 mmHg 81%
    10:00 +25°C° 0.2 mm 1 mps 666 mmHg 78%
    11:00 +26°C° 0.2 mm 1 mps 666 mmHg 74%
    12:00 +27°C° 0.2 mm 1 mps 666 mmHg 70%
    13:00 +27°C° 0.9 mm 1 mps 665 mmHg 72%
    14:00 +27°C° 0.9 mm 2 mps 665 mmHg 74%
    15:00 +26°C° 0.9 mm 2 mps 664 mmHg 76%
    16:00 +26°C° 1.1 mm 1 mps 664 mmHg 80%
    17:00 +25°C° 1.1 mm 1 mps 663 mmHg 83%
    18:00 +24°C° 1.1 mm 1 mps 663 mmHg 87%
    19:00 +23°C° 1 mm 1 mps 663 mmHg 88%
    20:00 +22°C° 1 mm 1 mps 664 mmHg 89%
    21:00 +21°C° 1 mm 1 mps 664 mmHg 90%
    22:00 +19°C° 0.9 mm 0 mps 664 mmHg 90%
    23:00 +19°C° 0.9 mm 0 mps 664 mmHg 91%
    Show more